Regional Weather Roundup
Issued by NWS

Home | Current Version | Previous Version | Graphics & Text | Print | Product List | Glossary On
Versions: 1 2 3 4 5 6 7 8 9 10 11 12 13 14 15 16 17 18 19 20 21 22 23 24 25 26 27
000
ASUS45 KGTF 251510
RWRMT
MONTANA HOURLY WEATHER ROUNDUP
NATIONAL WEATHER SERVICE GREAT FALLS MT
900 AM MDT SAT APR 25 2015

NOTE: "FAIR" INDICATES FEW OR NO CLOUDS BELOW 12000 FEET WITH NO
SIGNIFICANT WEATHER AND/OR OBSTRUCTIONS TO VISIBILITY.

MTZ001>007-043-251600-
WEST OF THE DIVIDE

CITY           SKY/WX    TMP DP  RH WIND       PRES   REMARKS
KALISPELL      PTSUNNY   38  30  73 N3        29.83S
MISSOULA       MOSUNNY   37  27  67 CALM      29.85S
BUTTE          CLOUDY    35  24  64 NW7       29.81R WCI  29
DEER LODGE       N/A     37  25  60 NE3       29.85R
EUREKA           N/A     41  27  56 CALM      29.85S
HAMILTON         N/A     39  27  60 S7        29.84S
LIBBY            N/A     36  27  69 N3        29.87R
$$

MTZ008-052>055-251600-
SOUTHWEST MONTANA

CITY           SKY/WX    TMP DP  RH WIND       PRES   REMARKS
BOZEMAN        CLOUDY    35  33  92 W5        29.82S
DILLON         CLOUDY    35  30  82 SW7       29.81R WCI  29
$$

MTZ009-010-012-014-046-048-049-054-251600-
EAST SLOPES AND CENTRAL MONTANA

CITY           SKY/WX    TMP DP  RH WIND       PRES   REMARKS
CUT BANK       PTSUNNY   40  31  70 N17       29.79R
GREAT FALLS    CLOUDY    40  35  83 SW13      29.79R
MALMSTROM AFB  CLOUDY    41  35  79 NW6       29.80R
HELENA         CLOUDY    45  25  45 W6        29.79S
$$

MTZ011-013-016-021-045-047-050-051-251600-
NORTH CENTRAL MONTANA

CITY           SKY/WX    TMP DP  RH WIND       PRES   REMARKS
HAVRE          CLOUDY    45  35  68 NW14      29.76R
LEWISTOWN      CLOUDY    37  34  89 SW12      29.78S WCI  29
CHINOOK          N/A     46  37  71 W8        29.76R
FORT BENTON      N/A     43  36  75 SW8       29.80S
$$

MTZ017>020-022>042-056>058-061-062-251600-
EASTERN PLAINS

CITY           SKY/WX    TMP DP  RH WIND       PRES   REMARKS
BAKER          CLOUDY    45  42  89 SE17      29.69R
BILLINGS       LGT RAIN  40  37  89 W7        29.77R
GLASGOW        PTSUNNY   48  39  71 NW23G31   29.66R
JORDAN           N/A     45  40  82 NW14      29.69R
LIVINGSTON     CLOUDY    39 N/A N/A W17       29.77S WCI  30
MILES CITY     PTSUNNY   50  40  68 CALM      29.64R
SIDNEY         PTSUNNY   52  41  66 E10       29.71R
WOLF POINT     PTSUNNY   57  42  57 SE9       29.65S
BIG TIMBER       N/A     37  34  87 SW13      29.79R WCI  29
FORSYTH          N/A     48  41  76 NW12      29.68R
PLENTYWOOD       N/A     46  43  87 E22       29.70S
POPLAR           N/A     55  45  67 E13       29.67F
$$

REGIONAL REPORTS...DAKOTAS

CITY           SKY/WX    TMP DP  RH WIND       PRES   REMARKS
WILLISTON      CLOUDY    49  41  74 SE16      29.73S
MINOT          CLOUDY    44  40  85 SE15      29.81R
DICKINSON      FOG       42  41  96 E14       29.72R VSB 1/2
BEACH          CLOUDY    43  43 100 SE17      29.70S
CROSBY         CLOUDY    46  45  93 E13       29.77S
WATFORD CITY   CLOUDY    46  41  81 SE10      29.72R
BISMARCK       CLOUDY    45  41  86 E13       29.80R
GRAND FORKS    CLOUDY    46  33  60 E7        29.89R
FARGO          CLOUDY    46  37  71 E14       29.86R
BUFFALO SD       N/A     44  43  96 E9        29.64S
RAPID CITY     FOG       44  44 100 SW3       29.70S VSB 1
$$

REGIONAL REPORTS...WYOMING/IDAHO/WASHINGTON

CITY           SKY/WX    TMP DP  RH WIND       PRES   REMARKS
GILLETTE       PTSUNNY   54  40  59 S10       29.65R
SHERIDAN       CLOUDY    42  37  82 NW23      29.70R
BUFFALO WY     CLOUDY    44  40  85 N25G36    29.67R
CODY           CLOUDY    37  36  93 N17       29.74R WCI  28
YELLOWSTONE LA   N/A     30  25  81 MISG      29.79R
IDAHO FALLS    PTSUNNY   41  33  73 S10       29.82R
SALMON         MOSUNNY   37  28  70 CALM      29.83S
BOISE          CLOUDY    45  36  70 CALM      29.81R
SPOKANE        LGT RAIN  39  34  82 S6        29.85R
$$

REGIONAL REPORTS...ALBERTA

CITY           SKY/WX    TMP DP  RH WIND       PRES   REMARKS
EDMONTON       PTSUNNY   34  21  60 E13       29.95R WCI  25
CALGARY        CLOUDY    36  30  80 N12       29.83R WCI  27
LETHBRIDGE     CLOUDY    36  32  87 NW10G20   29.83R WCI  28
MEDICINE HAT   CLOUDY    39  36  87 NW14      29.78R WCI  31
$$

REGIONAL REPORTS...SASKATCHEWAN

CITY           SKY/WX    TMP DP  RH WIND       PRES   REMARKS
SWIFT CURRENT  LGT RAIN  34  34 100 NE9       29.74R FOG     WCI  26
REGINA         CLOUDY    45  43  93 E17       29.75S FOG
SASKATOON      FRZ RAIN  28  25  86 NE18G26   29.91R WCI  16
$$



USA.gov is the U.S. government's official web portal to all federal, state and local government web resources and services.